Regional Weather Roundup
Issued by NWS

Home | Current Version | Previous Version | Text Only | Print | Product List | Glossary On
Versions: 1 2 3 4 5 6 7 8 9 10 11 12 13 14 15 16 17 18 19 20 21 22 23 24 25 26 27 28 29 30 31 32 33 34 35 36 37 38 39 40 41 42 43 44 45 46 47 48 49 50
000
ASUS43 KOAX 311110
RWRNE

WEATHER ROUNDUP FOR NEBRASKA
NATIONAL WEATHER SERVICE OMAHA NE
600 AM CDT FRI JUL 31 2015

NOTES: SATELLITE DATA IS BEING USED TO AUGMENT CLOUD COVER ABOVE
       12000 FEET.
       "FAIR" INDICATES FEW OR NO CLOUDS BELOW 12,000 FEET WITH NO
       SIGNIFICANT WEATHER AND/OR OBSTRUCTIONS TO VISIBILITY.

  * THESE STATIONS DO NOT REPORT WEATHER SUCH AS RAIN...SNOW OR FOG.

NEZ001>004-019>022-054>056-311200-
NEBRASKA PANHANDLE

CITY           SKY/WX    TMP DP  RH WIND       PRES   REMARKS
SCOTTSBLUFF    CLEAR     60  56  86 CALM      30.26S
ALLIANCE       CLEAR     55  53  93 CALM      30.25S
CHADRON        CLEAR     53  48  83 CALM      30.22S
KIMBALL        CLEAR     55  54  95 W6        30.30S
SIDNEY         CLEAR     56  53  90 W8        30.29S
$$

NEZ057>060-069>072-079>082-311200-
SOUTHWEST NEBRASKA

CITY           SKY/WX    TMP DP  RH WIND       PRES   REMARKS
NORTH PLATTE   CLEAR     61  58  90 CALM      30.21S
IMPERIAL       CLEAR     60  56  86 W3        30.24R
LEXINGTON      CLEAR     64  62  94 CALM      30.20S
MCCOOK         CLEAR     64  61  90 CALM      30.21R
OGALLALA       CLEAR     59  58  97 CALM      30.24S
$$

NEZ005>010-023>029-035>040-094-311200-
NORTH CENTRAL NEBRASKA

CITY           SKY/WX    TMP DP  RH WIND       PRES   REMARKS
VALENTINE      CLEAR     56  52  86 SW5       30.19S
AINSWORTH      CLEAR     63  58  86 SW5       30.18S
BROKEN BOW     CLEAR     62  59  90 CALM      30.18F
O`NEILL        CLEAR     63  63  97 SW3       30.16S
ORD            CLEAR     62  60  93 CALM      30.16S
THEDFORD       CLEAR     59  58  95 CALM      30.21S
$$

NEZ041-046>049-061>064-073>077-083>087-311200-
SOUTH CENTRAL NEBRASKA

CITY           SKY/WX    TMP DP  RH WIND       PRES   REMARKS
GRAND ISLAND   CLEAR     69  66  90 SW8       30.17S
AURORA         CLEAR     67  67 100 SW5       30.16F
HASTINGS       CLEAR     68  65  90 SW7       30.18S
HEBRON         CLEAR     66  64  91 CALM      30.17R
HOLDREGE       CLEAR     67  64  90 S7        30.20S
KEARNEY *      PTCLDY    70  64  83 SW7       30.18S
YORK           CLEAR     66  66 100 SW6       30.16S
$$

NEZ011>018-030>034-042>045-311200-
NORTHEAST NEBRASKA

CITY           SKY/WX    TMP DP  RH WIND       PRES   REMARKS
NORFOLK        CLEAR     66  62  87 S5        30.14F
ALBION         CLEAR     65  62  92 CALM      30.15F
BLAIR          MOCLDY    66  63  89 S9        30.13F
COLUMBUS *     CLEAR     64  57  77 CALM      30.16F
FREMONT        PTCLDY    71  59  66 S8        30.15S
TEKAMAH        PTCLDY    66  64  93 S6        30.12S
WAYNE          CLEAR     66  62  87 S8        30.13F
$$

NEZ050>053-065>068-078-088>093-311200-
SOUTHEAST NEBRASKA

CITY           SKY/WX    TMP DP  RH WIND       PRES   REMARKS
LINCOLN        CLEAR     69  64  84 NE5       30.18R
OMAHA EPPLEY   MOCLDY    71  65  81 S12       30.13F
BEATRICE       CLEAR     65  63  91 E5        30.16S
FALLS CITY     CLEAR     63  61  93 CALM      30.16R
NEBRASKA CITY  PTCLDY    69  60  72 N5        30.18R
PLATTSMOUTH    MOCLDY    67  63  89 SE3       30.15F
$$

NEZ044-045-051>053-067-311200-
OMAHA AREA

CITY           SKY/WX    TMP DP  RH WIND       PRES   REMARKS
OMAHA EPPLEY   MOCLDY    71  65  81 S12       30.13F
BLAIR          MOCLDY    66  63  89 S9        30.13F
FREMONT        PTCLDY    71  59  66 S8        30.15S
MILLARD        MOCLDY    68  66  94 CALM      30.15S
OFFUTT AFB     MOCLDY    67  64  88 CALM      30.13F
PLATTSMOUTH    MOCLDY    67  63  89 SE3       30.15F
WAHOO          FAIR      66  63  88 S7        30.15F
$$


USA.gov is the U.S. government's official web portal to all federal, state and local government web resources and services.